SAV633K FAOR-FHAW

Flight info

Callsign SAV633K
Flight time N/A
Altitude 36000
Route LIV1C VASUR UQ24 ETOSA UL435 XOXAM UN182 VEDRY UM431 EGRIX/N0491F380 UM431 NEVEP DCT 18S008E 16S003E DCT EGNOS DCT 12S004W 10S008W DCT PAKIP
Aircraft A359/H-SDE2E3GHIJ3J4J5LM1ORWXY/LB1D1

Departure

Time 2026-05-06 08:21
Airport O.R. Tambo International Airport (FAOR)

Arrival

Time N/A
Airport RAF Ascension Island (FHAW)
Time Latitude Longitude Altitude Speed Heading
2026-05-06 07:39 -26.13031 28.23473 5548 ft 0 kts
2026-05-06 08:07 -26.13036 28.23473 5537 ft 3 kts
2026-05-06 08:07 -26.13054 28.23470 5552 ft 3 kts
2026-05-06 08:07 -26.13072 28.23468 5550 ft 3 kts
2026-05-06 08:07 -26.13091 28.23463 5551 ft 3 kts 26°
2026-05-06 08:08 -26.13107 28.23451 5551 ft 3 kts 46°
2026-05-06 08:08 -26.13119 28.23434 5551 ft 3 kts 65°
2026-05-06 08:08 -26.13124 28.23418 5551 ft 0 kts 79°
2026-05-06 08:12 -26.13124 28.23419 5551 ft 1 kts 79°
2026-05-06 08:12 -26.13118 28.23455 5552 ft 6 kts 83°
2026-05-06 08:12 -26.13118 28.23491 5553 ft 4 kts 91°
2026-05-06 08:12 -26.13119 28.23512 5553 ft 2 kts 93°
2026-05-06 08:13 -26.13120 28.23532 5553 ft 3 kts 93°
2026-05-06 08:13 -26.13121 28.23566 5554 ft 6 kts 93°
2026-05-06 08:13 -26.13125 28.23619 5552 ft 8 kts 97°
2026-05-06 08:13 -26.13125 28.23688 5552 ft 9 kts 66°
2026-05-06 08:14 -26.13059 28.23725 5550 ft 12 kts 16°
2026-05-06 08:14 -26.12968 28.23754 5551 ft 15 kts 16°
2026-05-06 08:14 -26.12854 28.23789 5548 ft 19 kts 14°
2026-05-06 08:14 -26.12719 28.23828 5549 ft 22 kts 14°
2026-05-06 08:15 -26.12564 28.23872 5546 ft 24 kts 14°
2026-05-06 08:15 -26.12403 28.23919 5543 ft 24 kts 14°
2026-05-06 08:15 -26.12244 28.23970 5537 ft 24 kts 15°
2026-05-06 08:15 -26.12087 28.24022 5535 ft 23 kts 17°
2026-05-06 08:16 -26.11930 28.24074 5532 ft 23 kts 16°
2026-05-06 08:16 -26.11774 28.24123 5529 ft 23 kts 16°
2026-05-06 08:16 -26.11618 28.24173 5527 ft 23 kts 14°
2026-05-06 08:16 -26.11462 28.24220 5525 ft 23 kts 16°
2026-05-06 08:17 -26.11310 28.24265 5523 ft 23 kts 14°
2026-05-06 08:17 -26.11160 28.24311 5520 ft 23 kts 16°
2026-05-06 08:17 -26.11042 28.24348 5518 ft 13 kts 16°
2026-05-06 08:17 -26.10951 28.24379 5517 ft 14 kts 25°
2026-05-06 08:18 -26.10912 28.24420 5516 ft 0 kts 56°
2026-05-06 08:19 -26.10911 28.24420 5516 ft 1 kts 56°
2026-05-06 08:19 -26.10883 28.24470 5514 ft 14 kts 59°
2026-05-06 08:20 -26.10855 28.24596 5512 ft 15 kts 122°
2026-05-06 08:20 -26.10897 28.24604 5513 ft 5 kts 206°
2026-05-06 08:20 -26.10974 28.24567 5515 ft 19 kts 197°
2026-05-06 08:20 -26.11217 28.24492 5521 ft 65 kts 195°
2026-05-06 08:21 -26.11863 28.24294 5532 ft 126 kts 195°
2026-05-06 08:21 -26.12893 28.23976 5550 ft 180 kts 195°
2026-05-06 08:21 -26.14162 28.23623 6124 ft 187 kts 197°
2026-05-06 08:21 -26.15394 28.23283 7026 ft 181 kts 202°
2026-05-06 08:22 -26.16311 28.22394 7600 ft 176 kts 246°
2026-05-06 08:22 -26.16433 28.21054 8106 ft 186 kts 285°
2026-05-06 08:22 -26.15968 28.19611 8508 ft 208 kts 290°
2026-05-06 08:22 -26.15445 28.18068 8993 ft 217 kts 290°
2026-05-06 08:23 -26.14931 28.16445 9458 ft 227 kts 289°
2026-05-06 08:23 -26.14422 28.14720 9867 ft 241 kts 287°
2026-05-06 08:23 -26.13928 28.12911 10306 ft 253 kts 287°
2026-05-06 08:23 -26.13448 28.10984 10750 ft 264 kts 286°
2026-05-06 08:24 -26.12991 28.08961 11245 ft 274 kts 285°
2026-05-06 08:24 -26.12556 28.06852 11755 ft 284 kts 285°
2026-05-06 08:24 -26.12075 28.04722 12304 ft 289 kts 290°
2026-05-06 08:24 -26.11370 28.02608 12933 ft 293 kts 296°
2026-05-06 08:25 -26.10450 28.00569 13564 ft 296 kts 301°
2026-05-06 08:25 -26.09302 27.98659 14168 ft 299 kts 310°
2026-05-06 08:25 -26.07696 27.97152 14621 ft 310 kts 329°
2026-05-06 08:25 -26.05575 27.96500 14867 ft 336 kts 350°
2026-05-06 08:26 -26.03163 27.96830 15130 ft 360 kts
2026-05-06 08:26 -26.00675 27.97318 15508 ft 360 kts 358°
2026-05-06 08:26 -25.98220 27.97440 16003 ft 356 kts 351°
2026-05-06 08:26 -25.95746 27.97296 16519 ft 354 kts 347°
2026-05-06 08:27 -25.93300 27.96989 17020 ft 353 kts 345°
2026-05-06 08:27 -25.90861 27.96585 17514 ft 353 kts 344°
2026-05-06 08:27 -25.88450 27.96132 17987 ft 354 kts 343°
2026-05-06 08:27 -25.86005 27.95643 18425 ft 356 kts 342°
2026-05-06 08:28 -25.83578 27.95141 18768 ft 359 kts 342°
2026-05-06 08:28 -25.81111 27.94623 19065 ft 363 kts 342°
2026-05-06 08:28 -25.78618 27.94095 19415 ft 365 kts 342°
2026-05-06 08:28 -25.76115 27.93564 19722 ft 368 kts 342°
2026-05-06 08:29 -25.73613 27.93028 20055 ft 371 kts 342°
2026-05-06 08:29 -25.71054 27.92481 20402 ft 373 kts 342°
2026-05-06 08:29 -25.68490 27.91933 20735 ft 376 kts 342°
2026-05-06 08:29 -25.65939 27.91387 21081 ft 379 kts 342°
2026-05-06 08:30 -25.63345 27.90783 21404 ft 379 kts 339°
2026-05-06 08:30 -25.60842 27.89867 21737 ft 377 kts 332°
2026-05-06 08:30 -25.58520 27.88534 22079 ft 375 kts 324°
2026-05-06 08:30 -25.56443 27.86822 22434 ft 375 kts 316°
2026-05-06 08:31 -25.54629 27.84742 22762 ft 376 kts 309°
2026-05-06 08:31 -25.53088 27.82377 23118 ft 379 kts 303°
2026-05-06 08:31 -25.51769 27.79878 23459 ft 382 kts 300°
2026-05-06 08:31 -25.50545 27.77243 23786 ft 384 kts 298°
2026-05-06 08:32 -25.49370 27.74570 24134 ft 386 kts 297°
2026-05-06 08:32 -25.48217 27.71925 24497 ft 387 kts 297°
2026-05-06 08:32 -25.47031 27.69235 24864 ft 388 kts 298°
2026-05-06 08:32 -25.45829 27.66553 25244 ft 390 kts 298°
2026-05-06 08:33 -25.44609 27.63868 25645 ft 391 kts 298°
2026-05-06 08:33 -25.43375 27.61176 26041 ft 393 kts 298°
2026-05-06 08:33 -25.42129 27.58474 26436 ft 395 kts 298°
2026-05-06 08:33 -25.40891 27.55796 26810 ft 396 kts 298°
2026-05-06 08:34 -25.39632 27.53074 27193 ft 398 kts 298°
2026-05-06 08:34 -25.37097 27.47592 27952 ft 402 kts 298°
2026-05-06 08:34 -25.35822 27.44833 28319 ft 403 kts 299°
2026-05-06 08:35 -25.34538 27.42059 28678 ft 405 kts 299°
2026-05-06 08:35 -25.33250 27.39276 29037 ft 407 kts 299°
2026-05-06 08:35 -25.31973 27.36518 29371 ft 409 kts 299°
2026-05-06 08:35 -25.30674 27.33714 29673 ft 410 kts 299°
2026-05-06 08:36 -25.29368 27.30897 29969 ft 412 kts 299°
2026-05-06 08:36 -25.28057 27.28071 30320 ft 412 kts 299°
2026-05-06 08:36 -25.26751 27.25256 30703 ft 410 kts 298°
2026-05-06 08:36 -25.25448 27.22449 31051 ft 410 kts 298°
2026-05-06 08:37 -25.24150 27.19655 31406 ft 408 kts 298°
2026-05-06 08:37 -25.22866 27.16895 31766 ft 407 kts 298°
2026-05-06 08:37 -25.21572 27.14114 32081 ft 407 kts 298°
2026-05-06 08:37 -25.20277 27.11334 32375 ft 407 kts 298°
2026-05-06 08:38 -25.18982 27.08555 32711 ft 406 kts 298°
2026-05-06 08:38 -25.17688 27.05779 33038 ft 406 kts 298°
2026-05-06 08:38 -25.16393 27.03002 33359 ft 405 kts 298°
2026-05-06 08:38 -25.15119 27.00273 33683 ft 405 kts 298°
2026-05-06 08:39 -25.13828 26.97508 33992 ft 404 kts 297°
2026-05-06 08:39 -25.12542 26.94755 34251 ft 403 kts 297°
2026-05-06 08:39 -25.11257 26.92008 34472 ft 403 kts 297°
2026-05-06 08:39 -25.09969 26.89256 34667 ft 403 kts 297°
2026-05-06 08:40 -25.08678 26.86500 34883 ft 403 kts 297°
2026-05-06 08:40 -25.07389 26.83748 35086 ft 403 kts 297°
2026-05-06 08:40 -25.06113 26.81027 35284 ft 403 kts 297°
2026-05-06 08:40 -25.04822 26.78275 35478 ft 403 kts 297°
2026-05-06 08:41 -25.03530 26.75522 35672 ft 403 kts 297°
2026-05-06 08:41 -25.02236 26.72768 35870 ft 403 kts 297°
2026-05-06 08:41 -25.00942 26.70014 36043 ft 404 kts 297°
2026-05-06 08:42 -24.98353 26.64509 36081 ft 404 kts 297°
2026-05-06 08:42 -24.95775 26.59033 36085 ft 404 kts 297°
2026-05-06 08:43 -24.93182 26.53535 36082 ft 404 kts 297°
2026-05-06 08:43 -24.90593 26.48049 36078 ft 404 kts 297°
2026-05-06 08:44 -24.88000 26.42564 36079 ft 404 kts 297°
2026-05-06 08:44 -24.85422 26.37115 36077 ft 404 kts 297°
2026-05-06 08:45 -24.82822 26.31626 36080 ft 404 kts 296°
2026-05-06 08:45 -24.80223 26.26148 36082 ft 404 kts 296°
2026-05-06 08:46 -24.78057 26.21585 36082 ft 404 kts 296°
2026-05-06 08:46 -24.75464 26.16129 36084 ft 404 kts 296°
2026-05-06 08:47 -24.72854 26.10644 36091 ft 404 kts 296°
2026-05-06 08:47 -24.69826 26.04291 36095 ft 403 kts 296°
2026-05-06 08:48 -24.67654 25.99737 36098 ft 403 kts 296°
2026-05-06 08:48 -24.65038 25.94260 36099 ft 404 kts 296°
2026-05-06 08:49 -24.62423 25.88792 36099 ft 404 kts 296°
2026-05-06 08:49 -24.60055 25.83239 36094 ft 403 kts 289°
2026-05-06 08:50 -24.58662 25.77271 36103 ft 404 kts 283°
2026-05-06 08:50 -24.57557 25.71214 36102 ft 404 kts 282°
2026-05-06 08:51 -24.56482 25.65138 36089 ft 404 kts 283°
2026-05-06 08:51 -24.55246 25.59144 36088 ft 404 kts 285°
2026-05-06 08:52 -24.53846 25.53162 36098 ft 404 kts 285°
2026-05-06 08:52 -24.52451 25.47183 36084 ft 404 kts 285°
2026-05-06 08:53 -24.51092 25.41235 36105 ft 405 kts 285°
2026-05-06 08:53 -24.49728 25.35222 36094 ft 405 kts 284°
2026-05-06 08:54 -24.48370 25.29239 36094 ft 405 kts 284°
2026-05-06 08:54 -24.47001 25.23226 36095 ft 405 kts 284°
2026-05-06 08:55 -24.45635 25.17243 36097 ft 405 kts 284°
2026-05-06 08:55 -24.44262 25.11237 36101 ft 405 kts 284°
2026-05-06 08:56 -24.42886 25.05234 36098 ft 405 kts 284°
2026-05-06 08:56 -24.41514 24.99259 36113 ft 406 kts 284°
2026-05-06 08:57 -24.40133 24.93256 36116 ft 405 kts 284°
2026-05-06 08:57 -24.38755 24.87277 36110 ft 405 kts 284°
2026-05-06 08:58 -24.37367 24.81266 36114 ft 406 kts 284°
2026-05-06 08:58 -24.35986 24.75297 36118 ft 406 kts 284°
2026-05-06 08:59 -24.34602 24.69323 36116 ft 406 kts 284°
2026-05-06 08:59 -24.33207 24.63319 36119 ft 405 kts 284°
2026-05-06 09:00 -24.31817 24.57344 36115 ft 406 kts 284°
2026-05-06 09:00 -24.30416 24.51338 36123 ft 406 kts 284°
2026-05-06 09:01 -24.29022 24.45367 36124 ft 406 kts 284°
2026-05-06 09:01 -24.27614 24.39353 36122 ft 406 kts 284°
2026-05-06 09:02 -24.26218 24.33399 36125 ft 406 kts 284°
2026-05-06 09:02 -24.24807 24.27390 36126 ft 406 kts 284°
2026-05-06 09:03 -24.23400 24.21412 36130 ft 406 kts 284°
2026-05-06 09:03 -24.21989 24.15431 36130 ft 407 kts 284°
2026-05-06 09:04 -24.20569 24.09418 36131 ft 407 kts 284°
2026-05-06 09:04 -24.19150 24.03425 36122 ft 407 kts 284°
2026-05-06 09:05 -24.17734 23.97450 36123 ft 407 kts 283°
2026-05-06 09:05 -24.16306 23.91441 36135 ft 407 kts 283°
2026-05-06 09:06 -24.14883 23.85460 36129 ft 407 kts 283°
2026-05-06 09:06 -24.13450 23.79451 36126 ft 407 kts 283°
2026-05-06 09:07 -24.12020 23.73468 36130 ft 407 kts 283°
2026-05-06 09:07 -24.10589 23.67490 36138 ft 407 kts 283°
2026-05-06 09:08 -24.09146 23.61472 36136 ft 407 kts 283°
2026-05-06 09:08 -24.07707 23.55479 36139 ft 407 kts 283°
2026-05-06 09:09 -24.06264 23.49486 36138 ft 407 kts 283°
2026-05-06 09:09 -24.04826 23.43520 36138 ft 408 kts 283°
2026-05-06 09:10 -24.03375 23.37516 36139 ft 408 kts 283°
2026-05-06 09:10 -24.01932 23.31552 36143 ft 408 kts 283°
2026-05-06 09:11 -24.00474 23.25538 36144 ft 408 kts 283°
2026-05-06 09:11 -23.99016 23.19535 36145 ft 408 kts 283°
2026-05-06 09:12 -23.97558 23.13543 36146 ft 408 kts 283°
2026-05-06 09:12 -23.96100 23.07563 36147 ft 408 kts 283°
2026-05-06 09:13 -23.94631 23.01548 36146 ft 408 kts 283°
2026-05-06 09:13 -23.93173 22.95588 36151 ft 408 kts 282°
2026-05-06 09:14 -23.91701 22.89583 36152 ft 408 kts 282°
2026-05-06 09:14 -23.90236 22.83615 36151 ft 408 kts 282°
2026-05-06 09:15 -23.88760 22.77617 36154 ft 408 kts 282°
2026-05-06 09:15 -23.87290 22.71651 36152 ft 408 kts 282°
2026-05-06 09:16 -23.85811 22.65660 36159 ft 408 kts 282°
2026-05-06 09:16 -23.84337 22.59700 36159 ft 408 kts 282°
2026-05-06 09:17 -23.82855 22.53720 36160 ft 408 kts 282°
2026-05-06 09:17 -23.81371 22.47739 36161 ft 408 kts 282°
2026-05-06 09:18 -23.79881 22.41747 36160 ft 408 kts 282°
2026-05-06 09:18 -23.78393 22.35774 36166 ft 408 kts 282°
2026-05-06 09:19 -23.76911 22.29833 36165 ft 408 kts 282°
2026-05-06 09:19 -23.75417 22.23857 36165 ft 408 kts 282°
2026-05-06 09:20 -23.73924 22.17896 36164 ft 408 kts 282°
2026-05-06 09:20 -23.72421 22.11902 36166 ft 408 kts 282°
2026-05-06 09:21 -23.70921 22.05934 36169 ft 408 kts 282°
2026-05-06 09:21 -23.69425 21.99992 36168 ft 408 kts 282°
2026-05-06 09:22 -23.67919 21.94021 36168 ft 408 kts 282°
2026-05-06 09:22 -23.66411 21.88050 36174 ft 408 kts 282°
2026-05-06 09:23 -23.64900 21.82080 36171 ft 408 kts 281°
2026-05-06 09:23 -23.63396 21.76146 36173 ft 408 kts 281°
2026-05-06 09:24 -23.61882 21.70182 36173 ft 408 kts 281°
2026-05-06 09:24 -23.60365 21.64218 36171 ft 408 kts 281°
2026-05-06 09:25 -23.58853 21.58286 36175 ft 408 kts 281°
2026-05-06 09:25 -23.57322 21.52291 36178 ft 408 kts 281°
2026-05-06 09:26 -23.55806 21.46359 36177 ft 408 kts 281°
2026-05-06 09:26 -23.54279 21.40399 36175 ft 408 kts 281°
2026-05-06 09:27 -23.52746 21.34423 36176 ft 409 kts 281°
2026-05-06 09:27 -23.51221 21.28491 36177 ft 409 kts 281°
2026-05-06 09:28 -23.49683 21.22517 36179 ft 409 kts 281°
2026-05-06 09:28 -23.48140 21.16532 36178 ft 409 kts 281°
2026-05-06 09:29 -23.46606 21.10594 36177 ft 409 kts 281°
2026-05-06 09:29 -23.45056 21.04605 36180 ft 410 kts 281°
2026-05-06 09:30 -23.43511 20.98646 36181 ft 410 kts 281°
2026-05-06 09:30 -23.41969 20.92705 36184 ft 410 kts 281°
2026-05-06 09:31 -23.40411 20.86716 36181 ft 410 kts 281°
2026-05-06 09:31 -23.38859 20.80759 36181 ft 411 kts 281°
2026-05-06 09:32 -23.37295 20.74770 36181 ft 411 kts 281°
2026-05-06 09:32 -23.35731 20.68785 36183 ft 411 kts 281°
2026-05-06 09:33 -23.34162 20.62795 36179 ft 411 kts 282°
2026-05-06 09:33 -23.32580 20.56837 36176 ft 412 kts 281°
2026-05-06 09:34 -23.31008 20.50826 36177 ft 412 kts 281°
2026-05-06 09:34 -23.29448 20.44861 36181 ft 412 kts 281°
2026-05-06 09:35 -23.27864 20.38844 36183 ft 413 kts 281°
2026-05-06 09:35 -23.26289 20.32879 36183 ft 413 kts 281°
2026-05-06 09:36 -23.24695 20.26853 36182 ft 414 kts 281°
2026-05-06 09:36 -23.23105 20.20852 36182 ft 414 kts 281°
2026-05-06 09:37 -23.21503 20.14817 36183 ft 415 kts 281°
2026-05-06 09:37 -23.19911 20.08827 36184 ft 415 kts 281°
2026-05-06 09:38 -23.18301 20.02782 36183 ft 415 kts 281°
2026-05-06 09:38 -23.16697 19.96769 36186 ft 416 kts 281°
2026-05-06 09:39 -23.15082 19.90726 36185 ft 416 kts 281°
2026-05-06 09:39 -23.13471 19.84708 36183 ft 417 kts 281°
2026-05-06 09:40 -23.11843 19.78635 36184 ft 417 kts 281°
2026-05-06 09:40 -23.09409 19.69574 36185 ft 418 kts 281°
2026-05-06 09:41 -23.07774 19.63498 36186 ft 418 kts 281°
2026-05-06 09:41 -23.06145 19.57457 36180 ft 418 kts 281°
2026-05-06 09:42 -23.04514 19.51418 36181 ft 419 kts 281°
2026-05-06 09:42 -23.02870 19.45340 36179 ft 419 kts 282°
2026-05-06 09:43 -23.01230 19.39291 36192 ft 420 kts 282°
2026-05-06 09:43 -22.99583 19.33222 36180 ft 420 kts 282°
2026-05-06 09:44 -22.97930 19.27142 36189 ft 420 kts 282°
2026-05-06 09:44 -22.96270 19.21045 36182 ft 421 kts 282°
2026-05-06 09:45 -22.94891 19.15989 36186 ft 421 kts 282°
2026-05-06 09:45 -22.93233 19.09918 36186 ft 421 kts 282°
2026-05-06 09:46 -22.91287 19.02808 36185 ft 422 kts 282°
2026-05-06 09:46 -22.89894 18.97724 36186 ft 422 kts 282°
2026-05-06 09:47 -22.88213 18.91601 36189 ft 423 kts 282°
2026-05-06 09:47 -22.86538 18.85508 36187 ft 423 kts 282°
2026-05-06 09:48 -22.84852 18.79385 36186 ft 423 kts 282°
2026-05-06 09:48 -22.83161 18.73255 36184 ft 424 kts 282°
2026-05-06 09:49 -22.81479 18.67167 36187 ft 424 kts 282°
2026-05-06 09:49 -22.79785 18.61047 36186 ft 424 kts 282°
2026-05-06 09:50 -22.78079 18.54891 36189 ft 425 kts 282°
2026-05-06 09:50 -22.76381 18.48776 36188 ft 425 kts 282°
2026-05-06 09:51 -22.74684 18.42676 36187 ft 425 kts 282°
2026-05-06 09:51 -22.72973 18.36533 36187 ft 426 kts 283°
2026-05-06 09:52 -22.71257 18.30383 36191 ft 426 kts 283°
2026-05-06 09:52 -22.69539 18.24234 36193 ft 426 kts 283°
2026-05-06 09:53 -22.67827 18.18117 36187 ft 427 kts 283°
2026-05-06 09:53 -22.66102 18.11964 36185 ft 427 kts 283°
2026-05-06 09:54 -22.64372 18.05807 36188 ft 427 kts 283°
2026-05-06 09:54 -22.62651 17.99684 36185 ft 428 kts 283°
2026-05-06 09:55 -22.60914 17.93520 36185 ft 428 kts 283°
2026-05-06 09:55 -22.59174 17.87353 36185 ft 428 kts 283°
2026-05-06 09:56 -22.57429 17.81178 36194 ft 429 kts 283°
2026-05-06 09:56 -22.55679 17.74997 36212 ft 429 kts 283°
2026-05-06 09:57 -22.53936 17.68848 36231 ft 430 kts 283°
2026-05-06 09:57 -22.52180 17.62667 36245 ft 430 kts 283°
2026-05-06 09:58 -22.50419 17.56474 36265 ft 430 kts 283°
2026-05-06 09:58 -22.48660 17.50300 36265 ft 431 kts 283°
2026-05-06 09:59 -22.46613 17.44193 36265 ft 433 kts 288°
2026-05-06 09:59 -22.44302 17.38155 36261 ft 434 kts 288°
2026-05-06 10:00 -22.41963 17.32167 36241 ft 435 kts 288°
2026-05-06 10:00 -22.39615 17.26185 36223 ft 435 kts 289°
2026-05-06 10:01 -22.37106 17.20214 36213 ft 437 kts 291°
2026-05-06 10:01 -22.34481 17.14286 36211 ft 437 kts 291°
2026-05-06 10:02 -22.31867 17.08372 36198 ft 438 kts 291°
2026-05-06 10:02 -22.29271 17.02442 36171 ft 438 kts 291°
2026-05-06 10:03 -22.26667 16.96479 36141 ft 438 kts 291°
2026-05-06 10:03 -22.24065 16.90525 36135 ft 438 kts 291°
2026-05-06 10:04 -22.21463 16.84581 36132 ft 438 kts 291°
2026-05-06 10:04 -22.18869 16.78665 36134 ft 439 kts 291°
2026-05-06 10:05 -22.16242 16.72678 36134 ft 439 kts 291°
2026-05-06 10:05 -22.13642 16.66762 36130 ft 439 kts 291°
2026-05-06 10:06 -22.11019 16.60800 36132 ft 440 kts 291°
2026-05-06 10:06 -22.08386 16.54825 36131 ft 440 kts 291°
2026-05-06 10:07 -22.05769 16.48891 36131 ft 440 kts 291°
2026-05-06 10:07 -22.03133 16.42920 36131 ft 441 kts 291°
2026-05-06 10:08 -22.00492 16.36947 36131 ft 441 kts 291°
2026-05-06 10:08 -21.97865 16.31015 36127 ft 441 kts 291°
2026-05-06 10:09 -21.95219 16.25042 36137 ft 441 kts 291°
2026-05-06 10:09 -21.92571 16.19074 36117 ft 442 kts 291°
2026-05-06 10:10 -21.89911 16.13085 36134 ft 442 kts 291°
2026-05-06 10:10 -21.87265 16.07134 36121 ft 442 kts 291°
2026-05-06 10:11 -21.84598 16.01144 36126 ft 443 kts 291°
2026-05-06 10:11 -21.81936 15.95174 36115 ft 443 kts 291°
2026-05-06 10:12 -21.79280 15.89221 36119 ft 443 kts 292°
2026-05-06 10:12 -21.76606 15.83238 36119 ft 443 kts 292°
2026-05-06 10:13 -21.73943 15.77285 36117 ft 443 kts 292°
2026-05-06 10:13 -21.71265 15.71306 36118 ft 443 kts 292°
2026-05-06 10:14 -21.68591 15.65335 36109 ft 444 kts 292°
2026-05-06 10:14 -21.65900 15.59341 36108 ft 444 kts 292°
2026-05-06 10:15 -21.63208 15.53359 36107 ft 444 kts 292°
2026-05-06 10:15 -21.60531 15.47411 36106 ft 444 kts 292°
2026-05-06 10:16 -21.57835 15.41424 36104 ft 445 kts 292°
2026-05-06 10:16 -21.55148 15.35466 36107 ft 445 kts 292°
2026-05-06 10:17 -21.52440 15.29467 36107 ft 445 kts 292°
2026-05-06 10:17 -21.49741 15.23497 36108 ft 445 kts 292°
2026-05-06 10:18 -21.47029 15.17506 36106 ft 446 kts 292°
2026-05-06 10:18 -21.44318 15.11523 36107 ft 446 kts 292°
2026-05-06 10:19 -21.41610 15.05553 36107 ft 446 kts 292°
2026-05-06 10:19 -21.38877 14.99536 36106 ft 446 kts 292°
2026-05-06 10:20 -21.36161 14.93563 36107 ft 447 kts 292°
2026-05-06 10:20 -21.33436 14.87575 36109 ft 447 kts 292°
2026-05-06 10:21 -21.30701 14.81574 36108 ft 447 kts 292°
2026-05-06 10:21 -21.27964 14.75577 36106 ft 447 kts 292°
2026-05-06 10:22 -21.25240 14.69612 36106 ft 447 kts 293°
2026-05-06 10:22 -21.22498 14.63618 36106 ft 448 kts 293°
2026-05-06 10:23 -21.19747 14.57610 36108 ft 448 kts 293°
2026-05-06 10:23 -21.17016 14.51651 36094 ft 448 kts 293°
2026-05-06 10:24 -21.14269 14.45659 36110 ft 448 kts 293°
2026-05-06 10:24 -21.11510 14.39651 36098 ft 448 kts 293°
2026-05-06 10:25 -21.08767 14.33690 36105 ft 449 kts 293°
2026-05-06 10:25 -21.06002 14.27689 36096 ft 449 kts 293°
2026-05-06 10:26 -21.03237 14.21692 36097 ft 449 kts 293°
2026-05-06 10:26 -21.00480 14.15717 36107 ft 449 kts 293°
2026-05-06 10:27 -20.97698 14.09694 36102 ft 449 kts 293°
2026-05-06 10:27 -20.94941 14.03734 36083 ft 449 kts 293°
2026-05-06 10:28 -20.92158 13.97726 36083 ft 450 kts 293°
2026-05-06 10:28 -20.89377 13.91724 36094 ft 450 kts 293°
2026-05-06 10:29 -20.86595 13.85729 36093 ft 450 kts 293°
2026-05-06 10:29 -20.83823 13.79763 36093 ft 450 kts 293°
2026-05-06 10:30 -20.81049 13.73799 36094 ft 450 kts 293°
2026-05-06 10:30 -20.78249 13.67786 36091 ft 450 kts 293°
2026-05-06 10:31 -20.75453 13.61789 36092 ft 450 kts 293°
2026-05-06 10:31 -20.72669 13.55822 36090 ft 450 kts 293°
2026-05-06 10:32 -20.69864 13.49819 36089 ft 450 kts 293°
2026-05-06 10:32 -20.67065 13.43836 36087 ft 450 kts 293°
2026-05-06 10:33 -20.64280 13.37887 36090 ft 450 kts 293°
2026-05-06 10:33 -20.61464 13.31881 36085 ft 451 kts 293°
2026-05-06 10:34 -20.58669 13.25923 36085 ft 451 kts 293°
2026-05-06 10:34 -20.55853 13.19928 36085 ft 451 kts 294°
2026-05-06 10:35 -20.53050 13.13968 36085 ft 451 kts 294°
2026-05-06 10:35 -20.50229 13.07978 36085 ft 451 kts 294°
2026-05-06 10:36 -20.47406 13.01987 36085 ft 451 kts 294°
2026-05-06 10:36 -20.44599 12.96038 36088 ft 451 kts 294°
2026-05-06 10:37 -20.41773 12.90056 36090 ft 451 kts 294°
2026-05-06 10:37 -20.39423 12.85086 36088 ft 451 kts 294°
2026-05-06 10:38 -20.36588 12.79097 36084 ft 451 kts 294°
2026-05-06 10:38 -20.33772 12.73154 36084 ft 451 kts 294°
2026-05-06 10:39 -20.30937 12.67176 36087 ft 451 kts 294°
2026-05-06 10:39 -20.28096 12.61193 36091 ft 451 kts 294°
2026-05-06 10:40 -20.25274 12.55257 36086 ft 452 kts 294°
2026-05-06 10:40 -20.22427 12.49275 36086 ft 451 kts 294°
2026-05-06 10:41 -20.19584 12.43305 36090 ft 451 kts 294°
2026-05-06 10:41 -20.16755 12.37373 36085 ft 452 kts 294°
2026-05-06 10:42 -20.13907 12.31408 36087 ft 452 kts 294°
2026-05-06 10:42 -20.11072 12.25477 36088 ft 452 kts 294°
2026-05-06 10:43 -20.08217 12.19509 36083 ft 451 kts 294°
2026-05-06 10:44 -20.03951 12.10604 36083 ft 451 kts 294°
2026-05-06 10:44 -20.01093 12.04647 36086 ft 451 kts 294°
2026-05-06 10:45 -19.98235 11.98694 36086 ft 451 kts 294°
2026-05-06 10:45 -19.95375 11.92746 36083 ft 451 kts 294°
2026-05-06 10:46 -19.92533 11.86839 36082 ft 451 kts 294°
2026-05-06 10:46 -19.89669 11.80893 36084 ft 451 kts 294°
2026-05-06 10:47 -19.86801 11.74946 36085 ft 451 kts 294°
2026-05-06 10:47 -19.83934 11.69006 36084 ft 452 kts 294°
2026-05-06 10:48 -19.81081 11.63103 36082 ft 452 kts 294°
2026-05-06 10:48 -19.78206 11.57160 36084 ft 452 kts 294°
2026-05-06 10:49 -19.75324 11.51209 36085 ft 452 kts 294°
2026-05-06 10:49 -19.72446 11.45272 36080 ft 452 kts 294°
2026-05-06 10:50 -19.69584 11.39374 36082 ft 452 kts 294°
2026-05-06 10:50 -19.66695 11.33425 36087 ft 452 kts 294°
2026-05-06 10:51 -19.63811 11.27494 36085 ft 449 kts 294°
2026-05-06 10:51 -19.60977 11.21674 36082 ft 445 kts 294°
2026-05-06 10:52 -19.58128 11.15827 36084 ft 445 kts 294°
2026-05-06 10:52 -19.55284 11.09995 36083 ft 445 kts 294°
2026-05-06 10:53 -19.52438 11.04164 36085 ft 445 kts 294°
2026-05-06 10:53 -19.49602 10.98361 36083 ft 445 kts 294°
2026-05-06 10:54 -19.46745 10.92521 36083 ft 445 kts 294°
2026-05-06 10:54 -19.43913 10.86739 36081 ft 445 kts 294°
2026-05-06 10:55 -19.41054 10.80908 36081 ft 445 kts 295°
2026-05-06 10:55 -19.38197 10.75085 36084 ft 445 kts 295°
2026-05-06 10:56 -19.35350 10.69289 36085 ft 445 kts 295°
2026-05-06 10:56 -19.32488 10.63468 36082 ft 445 kts 295°
2026-05-06 10:57 -19.29624 10.57647 36087 ft 445 kts 295°
2026-05-06 10:57 -19.26768 10.51851 36077 ft 445 kts 295°
2026-05-06 10:58 -19.23896 10.46027 36089 ft 445 kts 295°
2026-05-06 10:58 -19.21023 10.40207 36082 ft 445 kts 295°
2026-05-06 10:59 -19.18173 10.34438 36083 ft 445 kts 295°
2026-05-06 10:59 -19.15292 10.28613 36088 ft 445 kts 295°
2026-05-06 11:00 -19.12430 10.22834 36088 ft 445 kts 295°
2026-05-06 11:00 -19.09551 10.17024 36086 ft 445 kts 295°
2026-05-06 11:01 -19.06663 10.11202 36083 ft 445 kts 295°
2026-05-06 11:01 -19.03802 10.05441 36083 ft 445 kts 295°
2026-05-06 11:02 -19.00919 9.99641 36086 ft 445 kts 295°
2026-05-06 11:02 -18.98034 9.93842 36082 ft 445 kts 295°
2026-05-06 11:03 -18.95162 9.88073 36085 ft 445 kts 295°
2026-05-06 11:03 -18.92273 9.82278 36084 ft 445 kts 295°
2026-05-06 11:04 -18.89402 9.76525 36085 ft 445 kts 295°
2026-05-06 11:04 -18.86507 9.70728 36083 ft 445 kts 295°
2026-05-06 11:05 -18.83610 9.64932 36080 ft 445 kts 295°
2026-05-06 11:05 -18.80729 9.59175 36086 ft 445 kts 295°
2026-05-06 11:06 -18.77828 9.53383 36086 ft 445 kts 295°
2026-05-06 11:06 -18.74950 9.47642 36083 ft 445 kts 295°
2026-05-06 11:07 -18.72043 9.41850 36082 ft 446 kts 295°
2026-05-06 11:07 -18.69141 9.36072 36083 ft 446 kts 295°
2026-05-06 11:08 -18.66249 9.30320 36082 ft 446 kts 295°
2026-05-06 11:08 -18.63340 9.24540 36090 ft 446 kts 295°
2026-05-06 11:08 -18.61882 9.21645 36248 ft 446 kts 295°
2026-05-06 11:09 -18.60425 9.18754 36588 ft 443 kts 295°
2026-05-06 11:09 -18.58985 9.15900 36990 ft 439 kts 295°
2026-05-06 11:09 -18.57559 9.13076 37356 ft 435 kts 295°
2026-05-06 11:09 -18.56161 9.10307 37685 ft 432 kts 295°
2026-05-06 11:10 -18.54753 9.07518 37943 ft 431 kts 295°
2026-05-06 11:10 -18.53345 9.04727 38065 ft 432 kts 295°
2026-05-06 11:10 -18.51929 9.01920 38084 ft 435 kts 295°
2026-05-06 11:11 -18.49060 8.96238 38083 ft 442 kts 295°
2026-05-06 11:11 -18.46152 8.90491 38084 ft 446 kts 295°
2026-05-06 11:12 -18.43246 8.84756 38084 ft 446 kts 295°
2026-05-06 11:12 -18.40315 8.78979 38084 ft 446 kts 295°
2026-05-06 11:13 -18.37406 8.73248 38082 ft 446 kts 295°
2026-05-06 11:13 -18.34475 8.67478 38084 ft 446 kts 295°
2026-05-06 11:14 -18.31542 8.61708 38084 ft 446 kts 295°
2026-05-06 11:14 -18.28623 8.55973 38084 ft 446 kts 295°
2026-05-06 11:15 -18.25688 8.50212 38080 ft 446 kts 295°
2026-05-06 11:15 -18.22756 8.44461 38087 ft 446 kts 295°
2026-05-06 11:16 -18.19834 8.38734 38085 ft 446 kts 295°
2026-05-06 11:16 -18.16908 8.33006 38082 ft 446 kts 295°
2026-05-06 11:17 -18.13966 8.27253 38084 ft 446 kts 295°
2026-05-06 11:17 -18.11045 8.21543 38084 ft 446 kts 295°
2026-05-06 11:18 -18.08095 8.15783 38084 ft 446 kts 295°
2026-05-06 11:18 -18.05166 8.10070 38079 ft 445 kts 295°
2026-05-06 11:19 -18.02216 8.04322 38088 ft 445 kts 295°
2026-05-06 11:19 -17.99463 7.98506 38086 ft 444 kts 291°
2026-05-06 11:20 -17.97084 7.92567 38085 ft 443 kts 290°
2026-05-06 11:20 -17.94785 7.86555 38088 ft 443 kts 290°
2026-05-06 11:21 -17.92494 7.80533 38089 ft 443 kts 290°
2026-05-06 11:21 -17.90205 7.74559 38086 ft 443 kts 290°
2026-05-06 11:22 -17.87894 7.68559 38085 ft 443 kts 290°
2026-05-06 11:22 -17.85574 7.62544 38087 ft 443 kts 290°
2026-05-06 11:23 -17.83268 7.56574 38086 ft 443 kts 290°
2026-05-06 11:23 -17.80949 7.50573 38089 ft 443 kts 290°
2026-05-06 11:24 -17.78636 7.44595 38087 ft 443 kts 290°
2026-05-06 11:24 -17.76312 7.38593 38090 ft 443 kts 290°
2026-05-06 11:25 -17.73996 7.32618 38085 ft 443 kts 290°
2026-05-06 11:25 -17.71668 7.26621 38088 ft 443 kts 290°
2026-05-06 11:26 -17.69337 7.20620 38090 ft 443 kts 290°
2026-05-06 11:26 -17.67017 7.14653 38089 ft 443 kts 290°
2026-05-06 11:27 -17.64686 7.08664 38089 ft 443 kts 290°
2026-05-06 11:27 -17.62742 7.03678 38090 ft 443 kts 290°
2026-05-06 11:28 -17.60400 6.97671 38091 ft 443 kts 290°
2026-05-06 11:28 -17.58070 6.91703 38090 ft 443 kts 290°
2026-05-06 11:29 -17.55726 6.85706 38091 ft 443 kts 290°
2026-05-06 11:29 -17.53401 6.79763 38092 ft 443 kts 290°
2026-05-06 11:30 -17.51055 6.73772 38092 ft 443 kts 290°
2026-05-06 11:30 -17.48705 6.67779 38093 ft 443 kts 290°
2026-05-06 11:31 -17.46361 6.61805 38090 ft 443 kts 290°
2026-05-06 11:31 -17.44023 6.55853 38092 ft 443 kts 290°
2026-05-06 11:32 -17.41667 6.49861 38091 ft 443 kts 290°
2026-05-06 11:32 -17.39330 6.43926 38093 ft 443 kts 290°
2026-05-06 11:33 -17.36970 6.37937 38094 ft 443 kts 290°
2026-05-06 11:33 -17.34629 6.31999 38090 ft 443 kts 290°
2026-05-06 11:34 -17.32261 6.26027 38093 ft 443 kts 293°
2026-05-06 11:34 -17.29754 6.20128 38094 ft 444 kts 294°
2026-05-06 11:35 -17.27296 6.14231 38094 ft 444 kts 293°
2026-05-06 11:35 -17.24897 6.08255 38090 ft 444 kts 292°
2026-05-06 11:36 -17.22535 6.02288 38092 ft 444 kts 292°
2026-05-06 11:36 -17.20190 5.96359 38093 ft 444 kts 292°
2026-05-06 11:37 -17.17825 5.90398 38093 ft 443 kts 292°
2026-05-06 11:37 -17.15456 5.84439 38092 ft 443 kts 292°
2026-05-06 11:38 -17.13078 5.78469 38093 ft 444 kts 292°
2026-05-06 11:38 -17.10716 5.72542 38091 ft 444 kts 292°
2026-05-06 11:39 -17.08341 5.66586 38095 ft 444 kts 292°
2026-05-06 11:39 -17.05963 5.60623 38091 ft 444 kts 292°
2026-05-06 11:40 -17.03596 5.54698 38092 ft 444 kts 293°
2026-05-06 11:40 -17.01220 5.48760 38090 ft 443 kts 293°
2026-05-06 11:41 -16.98834 5.42801 38090 ft 443 kts 293°
2026-05-06 11:41 -16.96465 5.36887 38094 ft 443 kts 293°
2026-05-06 11:42 -16.94075 5.30928 38093 ft 444 kts 293°
2026-05-06 11:42 -16.91688 5.24983 38092 ft 443 kts 293°
2026-05-06 11:43 -16.89315 5.19079 38091 ft 443 kts 293°
2026-05-06 11:43 -16.86919 5.13123 38088 ft 443 kts 293°
2026-05-06 11:44 -16.83336 5.04229 38092 ft 443 kts 293°
2026-05-06 11:44 -16.80949 4.98312 38091 ft 443 kts 293°
2026-05-06 11:45 -16.78553 4.92377 38090 ft 444 kts 293°
2026-05-06 11:45 -16.76150 4.86429 38091 ft 444 kts 293°
2026-05-06 11:46 -16.73749 4.80493 38092 ft 444 kts 293°
2026-05-06 11:46 -16.71361 4.74595 38091 ft 444 kts 293°
2026-05-06 11:47 -16.68956 4.68659 38090 ft 444 kts 293°
2026-05-06 11:47 -16.66548 4.62721 38092 ft 444 kts 293°
2026-05-06 11:48 -16.64155 4.56825 38090 ft 444 kts 293°
2026-05-06 11:48 -16.61743 4.50888 38089 ft 444 kts 293°
2026-05-06 11:49 -16.59328 4.44953 38086 ft 444 kts 293°
2026-05-06 11:49 -16.56916 4.39028 38091 ft 444 kts 293°
2026-05-06 11:50 -16.54500 4.33099 38091 ft 444 kts 293°
2026-05-06 11:50 -16.52094 4.27202 38092 ft 444 kts 293°
2026-05-06 11:51 -16.49670 4.21267 38087 ft 444 kts 293°
2026-05-06 11:51 -16.47262 4.15376 38087 ft 444 kts 293°
2026-05-06 11:52 -16.44839 4.09450 38091 ft 444 kts 293°
2026-05-06 11:52 -16.42411 4.03518 38088 ft 444 kts 293°
2026-05-06 11:53 -16.40000 3.97633 38089 ft 444 kts 293°
2026-05-06 11:53 -16.37569 3.91708 38088 ft 444 kts 293°
2026-05-06 11:54 -16.35141 3.85793 38088 ft 444 kts 293°
2026-05-06 11:54 -16.32705 3.79867 38088 ft 445 kts 293°
2026-05-06 11:55 -16.30264 3.73932 38090 ft 445 kts 293°
2026-05-06 11:55 -16.27843 3.68051 38085 ft 445 kts 293°
2026-05-06 11:56 -16.25400 3.62123 38086 ft 445 kts 293°
2026-05-06 11:56 -16.22951 3.56186 38084 ft 445 kts 294°
2026-05-06 11:57 -16.20520 3.50299 38084 ft 445 kts 294°
2026-05-06 11:57 -16.18069 3.44366 38085 ft 446 kts 294°
2026-05-06 11:58 -16.15614 3.38431 38088 ft 446 kts 294°
2026-05-06 11:58 -16.13171 3.32529 38086 ft 446 kts 294°
2026-05-06 11:59 -16.10714 3.26602 38087 ft 446 kts 294°
2026-05-06 11:59 -16.08252 3.20666 38084 ft 446 kts 294°
2026-05-06 12:00 -16.05808 3.14779 38081 ft 446 kts 294°
2026-05-06 12:00 -16.03344 3.08848 38082 ft 446 kts 294°
2026-05-06 12:01 -16.00880 3.02924 38059 ft 446 kts 294°
2026-05-06 12:01 -15.97911 2.97255 38080 ft 446 kts 301°
2026-05-06 12:02 -15.94575 2.91841 38088 ft 448 kts 302°
2026-05-06 12:02 -15.91151 2.86409 38084 ft 449 kts 302°
2026-05-06 12:03 -15.87728 2.80975 38082 ft 449 kts 302°
2026-05-06 12:03 -15.84328 2.75559 38081 ft 449 kts 302°
2026-05-06 12:04 -15.80910 2.70108 38080 ft 449 kts 302°
2026-05-06 12:04 -15.77512 2.64692 38081 ft 450 kts 302°
2026-05-06 12:05 -15.74090 2.59243 38080 ft 450 kts 302°
2026-05-06 12:05 -15.70666 2.53794 38079 ft 450 kts 302°
2026-05-06 12:06 -15.67244 2.48353 38081 ft 450 kts 303°
2026-05-06 12:06 -15.63836 2.42939 38078 ft 450 kts 303°
2026-05-06 12:07 -15.60406 2.37495 38078 ft 450 kts 303°
2026-05-06 12:07 -15.56989 2.32074 38079 ft 451 kts 303°
2026-05-06 12:08 -15.53558 2.26636 38078 ft 451 kts 303°
2026-05-06 12:08 -15.50120 2.21190 38077 ft 451 kts 303°
2026-05-06 12:09 -15.46673 2.15734 38079 ft 451 kts 303°
2026-05-06 12:09 -15.43250 2.10318 38071 ft 451 kts 303°
2026-05-06 12:10 -15.39804 2.04869 38074 ft 451 kts 303°
2026-05-06 12:10 -15.36376 1.99455 38074 ft 451 kts 303°
2026-05-06 12:11 -15.32916 1.93996 38072 ft 451 kts 303°
2026-05-06 12:11 -15.29486 1.88588 38072 ft 451 kts 303°
2026-05-06 12:12 -15.26034 1.83148 38069 ft 452 kts 303°
2026-05-06 12:12 -15.22573 1.77698 38070 ft 452 kts 303°
2026-05-06 12:13 -15.19116 1.72256 38069 ft 452 kts 303°
2026-05-06 12:13 -15.15672 1.66839 38066 ft 452 kts 303°
2026-05-06 12:14 -15.12204 1.61387 38067 ft 452 kts 303°
2026-05-06 12:14 -15.08759 1.55976 38067 ft 452 kts 303°
2026-05-06 12:15 -15.05873 1.51447 38063 ft 453 kts 303°
2026-05-06 12:15 -15.01834 1.45113 38065 ft 453 kts 303°
2026-05-06 12:16 -14.98941 1.40577 38067 ft 453 kts 303°
2026-05-06 12:16 -14.95463 1.35129 38064 ft 453 kts 303°
2026-05-06 12:17 -14.92005 1.29717 38065 ft 453 kts 303°
2026-05-06 12:17 -14.88522 1.24268 38063 ft 453 kts 303°
2026-05-06 12:18 -14.85060 1.18858 38065 ft 453 kts 303°
2026-05-06 12:18 -14.81570 1.13407 38067 ft 454 kts 303°
2026-05-06 12:19 -14.78074 1.07949 38066 ft 454 kts 303°
2026-05-06 12:19 -14.74601 1.02531 38063 ft 454 kts 303°
2026-05-06 12:20 -14.71100 0.97072 38063 ft 454 kts 303°
2026-05-06 12:20 -14.67618 0.91648 38064 ft 455 kts 303°
2026-05-06 12:21 -14.64111 0.86190 38067 ft 455 kts 303°
2026-05-06 12:21 -14.60623 0.80764 38062 ft 455 kts 303°
2026-05-06 12:22 -14.57133 0.75338 38064 ft 455 kts 303°
2026-05-06 12:22 -14.53623 0.69885 38063 ft 455 kts 303°
2026-05-06 12:23 -14.50123 0.64453 38060 ft 456 kts 303°
2026-05-06 12:23 -14.46595 0.58978 38058 ft 456 kts 303°
2026-05-06 12:24 -14.43076 0.53522 38060 ft 456 kts 303°
2026-05-06 12:24 -14.39575 0.48096 38057 ft 456 kts 303°
2026-05-06 12:25 -14.36047 0.42634 38056 ft 457 kts 304°
2026-05-06 12:25 -14.32540 0.37207 38055 ft 457 kts 304°
2026-05-06 12:26 -14.29009 0.31745 38056 ft 457 kts 303°
2026-05-06 12:26 -14.25477 0.26281 38057 ft 457 kts 304°
2026-05-06 12:27 -14.21960 0.20852 38055 ft 457 kts 304°
2026-05-06 12:27 -14.18423 0.15398 38055 ft 457 kts 304°
2026-05-06 12:28 -14.14887 0.09947 38053 ft 458 kts 304°
2026-05-06 12:28 -14.11348 0.04493 38056 ft 458 kts 304°
2026-05-06 12:29 -14.07966 -0.01066 38064 ft 457 kts 299°
2026-05-06 12:29 -14.04951 -0.06843 38053 ft 457 kts 298°
2026-05-06 12:30 -14.02011 -0.12616 38053 ft 457 kts 298°
2026-05-06 12:30 -13.99055 -0.18431 38068 ft 457 kts 298°
2026-05-06 12:31 -13.96114 -0.24197 38057 ft 457 kts 298°
2026-05-06 12:31 -13.93139 -0.30015 38053 ft 458 kts 298°
2026-05-06 12:32 -13.90187 -0.35781 38048 ft 458 kts 298°
2026-05-06 12:32 -13.87214 -0.41586 38060 ft 458 kts 298°
2026-05-06 12:33 -13.84236 -0.47394 38059 ft 458 kts 298°
2026-05-06 12:33 -13.81258 -0.53201 38057 ft 458 kts 298°
2026-05-06 12:34 -13.78295 -0.58976 38063 ft 458 kts 298°
2026-05-06 12:34 -13.75308 -0.64790 38042 ft 459 kts 298°
2026-05-06 12:35 -13.72337 -0.70570 38042 ft 459 kts 298°
2026-05-06 12:35 -13.69346 -0.76384 38042 ft 459 kts 298°